User: anonymous   Login
Location: Sungai Laei
(2.6000°N, 113.7167°E)
Time: 20:53:23
(UTC+00:00)
Language:

ARIANE 42L R/B - Orbit

View from above orbital plane
View from above orbital plane
View from above satellite
View from above satellite

Ground track
Ground track

The orbit data is extracted from the following two-line orbital elements,

1 27299U 02002B   22229.66007254  .00000013  00000-0  33291-3 0  9995
2 27299   4.0776 279.5252 7245062 122.1015 327.6981  2.21266941165769
Epoch (UTC): 17 August 2022 15:50:30
Eccentricity: 0.7245062
inclination: 4.0776°
perigee height: 475 km
apogee height: 36521 km
right ascension of ascending node: 279.5252°
argument of perigee: 122.1015°
revolutions per day: 2.21266941
mean anomaly at epoch: 327.6981°
orbit number at epoch: 16576

The dashed part of the orbit path shows where the satellite is in the earth's shadow,  

DLR